Regional Weather Roundup
Issued by NWS Charleston, SC

Current Version | Previous Version | Graphics & Text | Print | Product List | Glossary On
Versions: 1 2 3 4 5 6 7 8 9 10 11 12 13 14 15 16 17 18 19 20 21 22 23 24 25 26 27 28 29 30 31 32 33 34 35 36 37 38 39 40 41 42 43 44 45 46 47 48 49 50
000 ASUS42 KCHS 041111 RWRCHS REGIONAL WEATHER ROUNDUP NATIONAL WEATHER SERVICE CHARLESTON SC 600 AM EST WED MAR 04 2015 NOTE: "FAIR" INDICATES FEW OR NO CLOUDS BELOW 12,000 FEET WITH NO SIGNIFICANT WEATHER AND/OR OBSTRUCTIONS TO VISIBILITY. NOT ALL STATIONS ARE QUALITY CONTROLLED BY THE NATIONAL WEATHER SERVICE. USE DATA WITH CAUTION...ESPECIALLY DEWPOINT OBSERVATIONS. SCZ027-030-031-034>040-042>050-041200- ...SOUTHEAST SOUTH CAROLINA... CITY SKY/WX TMP DP RH WIND PRES REMARKS N CHARLESTON PTCLDY 63 62 97 SW12 30.10R WATERFRONT PRK N/A 64 N/A N/A SW10G20 N/A MOUNT PLEASANT FAIR 64 64 100 S8 30.10S PINOPOLIS NOT AVBL MONCKS CORNER FOG 54 52 94 CALM 30.09R VSB 1/2 SUMMERVILLE NOT AVBL BEAUFORT MCAS MOCLDY 66 62 87 S7 30.10S BEAUFORT ARPT CLOUDY 64 64 100 S3 30.10S HILTON HEAD IS NOT AVBL WALTERBORO FOG 59 59 100 CALM 30.09S VSB 1/2 ALLENDALE FOG 57 57 100 CALM 30.07S VSB<1/4 ...SOUTHERN MIDLANDS AND PEE DEE... CITY SKY/WX TMP DP RH WIND PRES REMARKS GEORGETOWN NOT AVBL KINGSTREE NOT AVBL ORANGEBURG FOG 51 49 92 CALM 30.07S VSB 1/4 BARNWELL FOG 54 54 100 CALM 30.08R VSB 1/4 AIKEN FOG 52 52 100 CALM 30.10R VSB 1/4 MANNING FOG N/A N/A N/A CALM 30.08S VSB 1/4 COLUMBIA DRZL/FOG 48 47 96 CALM 30.06R VSB 1/4 SUMTER FOG 47 47 98 SE2 30.05S VSB 0 FLORENCE FOG 48 47 96 SW7 30.06S VSB 1/4 MYRTLE BEACH CLOUDY 54 52 94 S8 30.11S VSB 1/2 N MYRTLE BEACH FOG 50 49 96 S7 30.08S VSB 1/4 $$ GAZ063-065-086>088-099>101-113>116-118-119-134>141-150-041200- ...SOUTHEAST GEORGIA... CITY SKY/WX TMP DP RH WIND PRES REMARKS SAVANNAH ARPT PTCLDY 62 60 93 S6 30.10S HUNTER AAF CLEAR 64 64 100 S5 30.09R FORT STEWART MOCLDY 60 58 96 SE2 30.08R STATESBORO PTCLDY 62 62 100 S3 30.09R FOG SYLVANIA MOSUNNY 62 62 100 S3 30.09R FOG CLAXTON FAIR 57 57 100 CALM 30.09R FOG ...CSRA...CENTRAL AND FAR SOUTHEAST GEORGIA... CITY SKY/WX TMP DP RH WIND PRES REMARKS THOMSON CLOUDY 52 52 100 CALM 30.11S VSB 1/4 AUGUSTA-BUSH FOG 51 51 100 CALM 30.08R VSB 1/4 AUGUSTA-DANIEL FOG 53 52 96 CALM 30.07R VSB 1/4 SWAINSBORO NOT AVBL VIDALIA CLOUDY 64 63 94 S5 30.09R EASTMAN FAIR 61 61 100 SW3 30.11R FOG HAZLEHURST CLOUDY 66 66 99 S5 30.08S ALMA FOG 59 59 100 CALM 30.10R VSB 1/2 WAYCROSS CLEAR 65 64 99 CALM 30.11R JESUP PTSUNNY 66 64 94 CALM 30.11R BAXLEY FOG 63 63 100 CALM 30.10R VSB 1/2 BRUNSWICK CLEAR 63 61 94 S3 30.12R SAINT SIMONS CLOUDY 57 57 100 S5 30.12R FOG $$ SCZ027-028-034-036>038-045-046-048>050-GAZ119-141-041200- ...LAKE AND SUPPLEMENTAL COASTAL OBSERVATIONS... STATION/POSITION TIME TEMP WIND PRES WAVE SWELL AIR SEA DIR/SP/G HT/PER HT/PER/DIR (UTC) (F) (DEG/KT/KT) (MB) (FT/S) (FT/S/D) UPR LAKE MARION NOT AVBL WINYAH BAY NOT AVBL LAKE MURRAY 1000 47 CALM 1017.3S ACE BASIN NERRS NOT AVBL FORT PULASKI 1000 59 50 200/ 1/ 2 1019.6R SAPELO ISLAND 1000 61 160/ 5 1019.0S $$ ANZ835-935-AMZ111-154-330-350-352-354-370-450-454-472-041200- ...C-MAN AND BUOY OBSERVATIONS... STATION/POSITION TIME TEMP WIND PRES WAVE SWELL AIR SEA DIR/SP/G HT/PER HT/PER/DIR (UTC) (F) (DEG/KT/KT) (MB) (FT/S) (FT/S/D) BUOY 41004 1050 69 68 230/ 10/ 12 1019.4R 4/ 7 3/ 7 BUOY 41008 1050 56 55 200/ 10/ 12 1019.6R 3/ 8 3/110/ 8 FOLLY BEACH CMAN 1000 54 220/ 8/ 9 1019.9R CAPERS NEARSHORE NOT AVBL FRIPP NEARSHORE 1000 52 220/ 8/ 8 1018.9R STATION/POSITION TIME TEMP WIND PRES WAVE SWELL AIR SEA DIR/SP/G HT/PER HT/PER/DIR (UTC) (F) (DEG/KT/KT) (MB) (FT/S) (FT/S/D) 5E ST. MARYS GA 1021 54 N/A 3/ 9 FRYING PAN BUOY 1050 66 61 200/ 10/ 10 1019.5R 5/ 7 5/110/ 7 BUOY 41025 NOT AVBL CAPE LOOKOUT NC 1000 58 200/ 11/ 13 1017.2F BUOY 41002 1050 71 73 200/ 17/ 21 1022.2R 6/ 9 3/130/ 9 BUOY 41010 1020 73 74 160/ 12/ 16 1021.0R ST AUGUSTINE FL 1100 61 210/ 1/ 1 1021.1R $$

USA.gov is the U.S. government's official web portal to all federal, state and local government web resources and services.